Regional Weather Roundup
Issued by NWS

Home | Current Version | Previous Version | Graphics & Text | Print | Product List | Glossary On
Versions: 1 2 3 4 5 6 7 8 9 10 11 12 13 14 15 16 17 18 19 20 21 22 23 24 25 26 27 28 29 30 31 32 33 34 35 36 37 38 39 40 41 42 43 44 45 46 47 48 49 50
000
ASUS43 KDTX 311601
RWRMI
MICHIGAN HOURLY REGIONAL WEATHER ROUNDUP
NATIONAL WEATHER SERVICE DETROIT/PONTIAC MI
1200 PM EDT FRI JUL 31 2015

NOTE: "FAIR" INDICATES FEW OR NO CLOUDS BELOW 12,000 FEET WITH NO
SIGNIFICANT WEATHER AND/OR OBSTRUCTION TO VISIBILITY.

MIZ047>049-052>055-059>063-066>070-074>076-081>083-311700-
SOUTHEAST LOWER MICHIGAN

CITY           SKY/WX    TMP DP  RH WIND       PRES   REMARKS
ADRIAN         SUNNY     81  62  52 W9        29.97F
ALMA           MOSUNNY   82  57  43 SW16G24   29.90F
ANN ARBOR      SUNNY     83  60  45 W16       29.94F
BAD AXE        SUNNY     78  62  57 W10G21    29.87F
CARO           SUNNY     81  62  52 W14G23    29.88F
DETROIT CITY   SUNNY     84  56  38 W12G22    29.92F
DETROIT        MOSUNNY   84  59  42 SW12G20   29.94F
FLINT          SUNNY     83  60  45 SW13G21   29.91F
GROSSE ILE     MOSUNNY   84  59  42 W9        29.93S
HILLSDALE      SUNNY     83  59  44 W15       29.98F
HOWELL         SUNNY     83  57  40 W13G20    29.94S

CITY           SKY/WX    TMP DP  RH WIND       PRES   REMARKS
JACKSON        SUNNY     81  61  50 W12       29.96S
LAMBERTVILLE   SUNNY     83  60  44 W10       29.96F
LANSING        SUNNY     82  59  45 W20G25    29.93F
LAPEER         FAIR      82  59  45 W13G18    29.90F
MASON          SUNNY     79  58  48 W9G17     29.94F
MONROE         SUNNY     83  62  48 W10       29.94S
MT. CLEMENS    MOSUNNY   85  58  40 SW9G21    29.89F
PONTIAC        MOSUNNY   82  59  45 W14G22    29.92F
PORT HOPE        N/A     80  62  54 W10       29.84S
PORT HURON     SUNNY     81  61  50 SW7       29.90F
TRI CITIES     MOSUNNY   83  61  47 W17       29.88F
MIDLAND        FAIR      82  59  46 W12       29.87F
TROY           SUNNY     83  56  39 W14G20    29.93F
SAGINAW HB     SUNNY     81  61  50 SW10G17   29.88F
$$
MIZ043>046-050>051-056>058-064>065-071>073-077>080-311700-
SOUTHWEST LOWER MICHIGAN

CITY           SKY/WX    TMP DP  RH WIND       PRES   REMARKS
BATTLE CREEK   SUNNY     83  62  49 W16       29.97F
BENTON HARBOR  SUNNY     80  64  58 W21       29.98F
BIG RAPIDS     SUNNY     80  55  42 W9G20     29.89F
COLDWATER      MOSUNNY   81  59  47 W15G24    29.98S
FREMONT        FAIR      80  55  42 W9G16     29.92S
HOLLAND        SUNNY     79  62  56 W12G22    29.96F
GRAND RAPIDS   MOSUNNY   82  57  42 NW18G26   29.94S
IONIA          PTSUNNY   82  59  45 W15G24    29.92S
KALAMAZOO      MOSUNNY   83  61  47 W12G21    29.97F
LUDINGTON      SUNNY     76  64  65 W9        29.90F
MARSHALL       SUNNY     83  61  47 W15       29.96F
MOUNT PLEASANT PTSUNNY   83  58  42 W13       29.88F
MUSKEGON       MOSUNNY   79  62  56 W12       29.93F
SOUTH HAVEN    SUNNY     77  65  67 W10G18    29.98R
$$
MIZ016>042-311700-
NORTHERN LOWER MICHIGAN

CITY           SKY/WX    TMP DP  RH WIND       PRES   REMARKS
ALPENA         MOSUNNY   82  58  43 W8        29.80F
BEAVER ISLAND  PTSUNNY   74  59  59 W9        29.83S
BELLAIRE       CLOUDY    76  58  54 W9        29.85S
CADILLAC       SUNNY     79  58  48 W14G21    29.89S
CHARLEVOIX     MOSUNNY   74  60  61 W18       29.87S
FRANKFORT      SUNNY     74  63  68 NW14G20   29.88S
GAYLORD        MOSUNNY   76  57  51 W16G29    29.85F
GRAYLING       PTSUNNY   78  56  47 W8G17     29.86F
HARBOR SPRINGS CLOUDY    70  61  72 W10       29.83S
HOUGHTON LAKE  MOSUNNY   77  57  50 W13       29.87F
MANISTEE       SUNNY     75  59  57 W14G20    29.89F
OSCODA         PTSUNNY   85  53  32 W16G26    29.82S
PELLSTON       SUNNY     78  57  48 W14G21    29.82S
ROGERS CITY    MOSUNNY   79  60  51 W12G17    29.81S
TRAVERSE CITY  PTSUNNY   83  56  39 W15       29.84S
$$
MIZ007>008-015-311700-
EASTERN UPPER MICHIGAN

CITY           SKY/WX    TMP DP  RH WIND       PRES   REMARKS
KINROSS        SUNNY     72  57  60 NW14      29.80S
MACKINAC ISLAN MOSUNNY   72  60  66 SW12      29.80F
MUNISING         N/A     72  56  57 NW18      29.84S
$$
MIZ004>006-011>014-085-311700-
CENTRAL UPPER MICHIGAN

CITY           SKY/WX    TMP DP  RH WIND       PRES   REMARKS
ESCANABA       SUNNY     77  54  44 W12G24    29.83S
MENOMINEE      SUNNY     75  57  53 NW8       29.87S
SAWYER-GWINN   PTSUNNY   73  52  46 NW16G22   29.86S
$$
MIZ001>003-009>011-084-311700-
WESTERN UPPER MICHIGAN

CITY           SKY/WX    TMP DP  RH WIND       PRES   REMARKS
IRON MOUNTAIN  PTSUNNY   75  55  49 NW16G23   29.88S
HOUGHTON       SUNNY     67  55  65 W18       29.86S
COPPER HARBOR    N/A     68  55  63 N14       29.83R
IRONWOOD       SUNNY     70  57  64 W15G21    29.92S
$$

ABBREVIATIONS USED IN REMARKS
   TC - TEMPERATURE IN CELSIUS
  WCI - WIND CHILL INDEX
   HX - HEAT INDEX
  VSB - VISIBILITY




USA.gov is the U.S. government's official web portal to all federal, state and local government web resources and services.